• In Belgien
  • Länderverzeichnis
  • Für 7 Tage
  • Wassertemperatur
  • Satellitenkarten
  • Wetterkarte
  • Widgets
  • user-avatar
    Anmelden

    Stündliche Wetter Etschmiadsin

    Heute, 21 November, Dienstag

    Zeit Temperatur Niederschläge Wind Luftdruck Luftfeuchtigkeit
    00:00 +9°C° 0 mm 2 m/S 682 mmHg 64%
    01:00 +9°C° 0 mm 2 m/S 682 mmHg 65%
    02:00 +9°C° 0 mm 2 m/S 682 mmHg 66%
    03:00 +9°C° 0 mm 2 m/S 681 mmHg 68%
    04:00 +9°C° 0 mm 2 m/S 681 mmHg 69%
    05:00 +9°C° 0 mm 2 m/S 681 mmHg 69%
    06:00 +9°C° 0 mm 2 m/S 681 mmHg 69%
    07:00 +10°C° 0,2 mm 2 m/S 681 mmHg 66%
    08:00 +10°C° 0,2 mm 3 m/S 681 mmHg 64%
    09:00 +12°C° 0 mm 3 m/S 680 mmHg 60%
    10:00 +13°C° 0,1 mm 3 m/S 680 mmHg 57%
    11:00 +13°C° 0,1 mm 4 m/S 680 mmHg 55%
    12:00 +14°C° 0,1 mm 4 m/S 680 mmHg 53%
    13:00 +14°C° 0 mm 4 m/S 680 mmHg 54%
    14:00 +14°C° 0 mm 4 m/S 679 mmHg 55%
    15:00 +14°C° 0 mm 5 m/S 679 mmHg 56%
    16:00 +13°C° 0 mm 4 m/S 678 mmHg 61%
    17:00 +12°C° 0 mm 3 m/S 678 mmHg 67%
    18:00 +11°C° 0 mm 3 m/S 678 mmHg 72%
    19:00 +10°C° 0 mm 3 m/S 677 mmHg 73%
    20:00 +10°C° 0 mm 3 m/S 677 mmHg 74%
    21:00 +10°C° 0 mm 3 m/S 677 mmHg 75%
    22:00 +10°C° 0 mm 3 m/S 677 mmHg 75%
    23:00 +10°C° 0 mm 3 m/S 677 mmHg 76%

    Morgen, 22 November, Mittwoch

    Zeit Temperatur Niederschläge Wind Luftdruck Luftfeuchtigkeit
    00:00 +10°C° 0 mm 3 m/S 677 mmHg 76%
    01:00 +10°C° 0,4 mm 3 m/S 677 mmHg 77%
    02:00 +9°C° 0,4 mm 2 m/S 677 mmHg 77%
    03:00 +9°C° 0,4 mm 2 m/S 677 mmHg 78%
    04:00 +9°C° 1 mm 2 m/S 677 mmHg 79%
    05:00 +8°C° 1 mm 3 m/S 677 mmHg 80%
    06:00 +7°C° 1 mm 3 m/S 677 mmHg 82%
    07:00 +7°C° 1 mm 3 m/S 677 mmHg 81%
    08:00 +7°C° 1 mm 2 m/S 677 mmHg 80%
    09:00 +7°C° 1 mm 2 m/S 677 mmHg 79%
    10:00 +7°C° 0,9 mm 2 m/S 677 mmHg 78%
    11:00 +7°C° 0,9 mm 2 m/S 677 mmHg 77%
    12:00 +7°C° 0,9 mm 3 m/S 677 mmHg 77%
    13:00 +7°C° 0,5 mm 3 m/S 677 mmHg 75%
    14:00 +7°C° 0,5 mm 3 m/S 677 mmHg 73%
    15:00 +7°C° 0,5 mm 3 m/S 678 mmHg 71%
    16:00 +6°C° 0,2 mm 2 m/S 678 mmHg 72%
    17:00 +6°C° 0,2 mm 2 m/S 679 mmHg 73%
    18:00 +5°C° 0,2 mm 2 m/S 679 mmHg 74%
    19:00 +4°C° 0,2 mm 2 m/S 680 mmHg 74%
    20:00 +4°C° 0,2 mm 2 m/S 680 mmHg 75%
    21:00 +3°C° 0,2 mm 3 m/S 680 mmHg 75%
    22:00 +3°C° 0,1 mm 2 m/S 681 mmHg 75%
    23:00 +3°C° 0,1 mm 2 m/S 681 mmHg 75%

    übermorgen, 23 November, Donnerstag

    Zeit Temperatur Niederschläge Wind Luftdruck Luftfeuchtigkeit
    00:00 +3°C° 0,1 mm 1 m/S 681 mmHg 75%
    01:00 +3°C° 0,1 mm 1 m/S 681 mmHg 74%
    02:00 +2°C° 0,1 mm 1 m/S 681 mmHg 74%
    03:00 +2°C° 0,1 mm 1 m/S 682 mmHg 73%
    04:00 +1°C° 0 mm 1 m/S 682 mmHg 72%
    05:00 +1°C° 0 mm 1 m/S 682 mmHg 71%
    06:00 0°C° 0 mm 1 m/S 682 mmHg 70%
    07:00 -1°C° 0 mm 2 m/S 682 mmHg 69%
    08:00 -1°C° 0 mm 2 m/S 683 mmHg 67%
    09:00 +1°C° 0 mm 2 m/S 683 mmHg 65%
    10:00 +2°C° 0,1 mm 2 m/S 683 mmHg 63%
    11:00 +2°C° 0,1 mm 3 m/S 682 mmHg 61%
    12:00 +2°C° 0,1 mm 3 m/S 682 mmHg 58%
    13:00 +2°C° 0,1 mm 3 m/S 682 mmHg 58%
    14:00 +3°C° 0,1 mm 3 m/S 682 mmHg 58%
    15:00 +3°C° 0,1 mm 3 m/S 682 mmHg 57%
    16:00 +3°C° 0,1 mm 2 m/S 682 mmHg 60%
    17:00 +2°C° 0,1 mm 2 m/S 683 mmHg 63%
    18:00 +1°C° 0,1 mm 2 m/S 683 mmHg 66%
    19:00 +1°C° 0,1 mm 2 m/S 683 mmHg 67%
    20:00 +2°C° 0,1 mm 1 m/S 684 mmHg 68%
    21:00 +2°C° 0,1 mm 1 m/S 684 mmHg 69%
    22:00 +2°C° 0,2 mm 1 m/S 684 mmHg 70%
    23:00 +2°C° 0,2 mm 1 m/S 684 mmHg 70%

    24 November, Freitag

    Zeit Temperatur Niederschläge Wind Luftdruck Luftfeuchtigkeit
    00:00 +2°C° 0,2 mm 1 m/S 684 mmHg 71%
    01:00 +1°C° 0,2 mm 1 m/S 684 mmHg 72%
    02:00 +1°C° 0,2 mm 1 m/S 684 mmHg 73%
    03:00 +1°C° 0,2 mm 1 m/S 684 mmHg 74%
    04:00 0°C° 0,1 mm 1 m/S 685 mmHg 74%
    05:00 0°C° 0,1 mm 1 m/S 685 mmHg 75%
    06:00 0°C° 0,1 mm 1 m/S 685 mmHg 75%
    07:00 0°C° 0,1 mm 1 m/S 685 mmHg 72%
    08:00 +1°C° 0,1 mm 1 m/S 686 mmHg 70%
    09:00 +1°C° 0,1 mm 1 m/S 686 mmHg 67%
    10:00 +2°C° 0 mm 1 m/S 686 mmHg 65%
    11:00 +2°C° 0 mm 1 m/S 685 mmHg 63%
    12:00 +2°C° 0 mm 2 m/S 685 mmHg 60%
    13:00 +2°C° 0 mm 2 m/S 685 mmHg 60%
    14:00 +3°C° 0 mm 1 m/S 685 mmHg 59%
    15:00 +3°C° 0 mm 1 m/S 685 mmHg 59%
    16:00 +2°C° 0 mm 1 m/S 685 mmHg 61%
    17:00 +1°C° 0 mm 1 m/S 686 mmHg 62%
    18:00 0°C° 0 mm 1 m/S 686 mmHg 64%
    19:00 -1°C° 0 mm 1 m/S 686 mmHg 64%
    20:00 -1°C° 0 mm 1 m/S 687 mmHg 63%
    21:00 -1°C° 0 mm 1 m/S 687 mmHg 63%
    22:00 -1°C° 0,1 mm 1 m/S 687 mmHg 63%
    23:00 -1°C° 0,1 mm 1 m/S 688 mmHg 63%

    25 November, Samstag

    Zeit Temperatur Niederschläge Wind Luftdruck Luftfeuchtigkeit
    00:00 -2°C° 0,1 mm 1 m/S 688 mmHg 63%
    01:00 -2°C° 0,1 mm 1 m/S 688 mmHg 63%
    02:00 -2°C° 0,1 mm 1 m/S 688 mmHg 63%
    03:00 -2°C° 0,1 mm 1 m/S 689 mmHg 63%
    04:00 -3°C° 0 mm 1 m/S 689 mmHg 64%
    05:00 -3°C° 0 mm 1 m/S 690 mmHg 65%
    06:00 -3°C° 0 mm 1 m/S 690 mmHg 66%
    07:00 -4°C° 0,1 mm 2 m/S 691 mmHg 65%
    08:00 -4°C° 0,1 mm 2 m/S 691 mmHg 64%
    09:00 -3°C° 0,1 mm 2 m/S 692 mmHg 63%
    10:00 -2°C° 0,1 mm 2 m/S 692 mmHg 61%
    11:00 -2°C° 0,1 mm 2 m/S 692 mmHg 59%
    12:00 -1°C° 0,1 mm 2 m/S 692 mmHg 57%
    13:00 -1°C° 0 mm 2 m/S 692 mmHg 57%
    14:00 -1°C° 0 mm 2 m/S 692 mmHg 56%
    15:00 -1°C° 0 mm 2 m/S 692 mmHg 56%
    16:00 -2°C° 0 mm 2 m/S 692 mmHg 58%
    17:00 -3°C° 0 mm 2 m/S 693 mmHg 60%
    18:00 -5°C° 0 mm 2 m/S 694 mmHg 62%
    19:00 -5°C° 0 mm 2 m/S 694 mmHg 62%
    20:00 -5°C° 0 mm 2 m/S 694 mmHg 61%
    21:00 -6°C° 0 mm 2 m/S 695 mmHg 61%
    22:00 -6°C° 0 mm 2 m/S 695 mmHg 60%
    23:00 -4°C° 0 mm 1 m/S 695 mmHg 59%

    26 November, Sonntag

    Zeit Temperatur Niederschläge Wind Luftdruck Luftfeuchtigkeit
    00:00 -4°C° 0 mm 1 m/S 695 mmHg 58%
    01:00 -4°C° 0 mm 1 m/S 694 mmHg 58%
    02:00 -4°C° 0 mm 1 m/S 694 mmHg 57%
    03:00 -4°C° 0 mm 1 m/S 694 mmHg 56%
    04:00 -4°C° 0 mm 1 m/S 694 mmHg 56%
    05:00 -4°C° 0 mm 1 m/S 694 mmHg 56%
    06:00 -4°C° 0 mm 1 m/S 693 mmHg 55%
    07:00 -3°C° 0 mm 1 m/S 693 mmHg 54%
    08:00 -2°C° 0 mm 1 m/S 694 mmHg 52%
    09:00 -1°C° 0 mm 1 m/S 694 mmHg 51%
    10:00 +1°C° 0 mm 1 m/S 693 mmHg 49%
    11:00 +2°C° 0 mm 1 m/S 693 mmHg 47%
    12:00 +3°C° 0 mm 1 m/S 692 mmHg 45%
    13:00 +3°C° 0 mm 1 m/S 692 mmHg 45%
    14:00 +3°C° 0 mm 1 m/S 691 mmHg 46%
    15:00 +3°C° 0 mm 1 m/S 691 mmHg 47%
    16:00 +2°C° 0 mm 1 m/S 691 mmHg 47%
    17:00 +1°C° 0 mm 1 m/S 691 mmHg 47%
    18:00 -3°C° 0 mm 2 m/S 691 mmHg 48%
    19:00 -3°C° 0 mm 2 m/S 691 mmHg 47%
    20:00 -3°C° 0 mm 2 m/S 692 mmHg 47%
    21:00 -3°C° 0 mm 2 m/S 692 mmHg 47%
    22:00 -1°C° 0 mm 1 m/S 692 mmHg 47%
    23:00 -1°C° 0 mm 1 m/S 691 mmHg 47%
    Mehr zeigen